COSMOS 371

Satellite information

Favourite Embed

Satellite Type and Status

PAYLOADIN ORBIT

Key statistics

Satellite COSMOS 371 at a glance.

Uptime

20152

Days in orbit

Revolutions

≈ 14.6

Per day

Orbit

LEO

Low Earth Orbit

Inclination

74.0

Latest

Satellite identification and parameters

Extended collection of information and parameters for COSMOS 371.

Object identification

Identified? True

Debris? False

Object name: COSMOS 371

International designator: 1970-083A

Object number (NORAD): 4578

Object ID (CCSDS): 4578

Country: COMMONWEALTH OF INDEPENDENT STATES (CIS)

Current information (Y/N): Y

RCS size: LARGE

Orbital parameters

Period: 98.922 minutes

Inclination: 73.9959 deg

SMA: 7085.272 km

Apoapsis: 709.157 km

Periapsis: 705.117 km

RAAN: 166.1485 deg

Eccentricy: 0.00028513

Argument of periapsis: 219.7336 deg

Mean anomaly: 140.3619 deg

Mean motion: 14.55686808 rev/day

Mean motion (dot): 0.00000507 rev/day2

B* drag term: 0.00012258668 1/REarth

Two-line elements (TLE)

Creation date: Dec. 14, 2025, 3:07 a.m.

Reference frame: TEME

Reference center: EARTH

Epoch: Dec. 13, 2025, 3:42 p.m. UTC

TLE line 0: 0 COSMOS 371

TLE line 1: 1 04578U 70083A 25347.65466562 .00000507 00000-0 12259-3 0 9997

TLE line 2: 2 04578 73.9959 166.1485 0002851 219.7336 140.3619 14.55686808918593

Live tracking on map

Real-time ground track for satellite COSMOS 371.

In-orbit conjunctions

A list of the most updated potential collisions computed for object COSMOS 371.

Target Orbit TCA Probability of collision Miss distance Type
CZ-6A DEB SSO 2025-12-06 20:33:19 0.0007595857 813.0 (m) DEBRIS
NOAA 17 DEB SSO 2025-08-25 12:52:29 0.0004150394 256.0 (m) DEBRIS
COSMOS 2251 DEB LEO 2025-04-29 03:29:42 0.0001474415 960.0 (m) DEBRIS
CZ-6A DEB SSO 2024-11-11 21:42:35 0.0003842197 543.0 (m) DEBRIS
CZ-4 DEB SSO 2024-08-29 15:34:23 0.0001389157 220.0 (m) DEBRIS

Associated space launch

The first soviet navigation system called Tsiklon consisted of Zaliv satellites in low earth orbit.

COSMOS 371 was lifted into orbit during the mission ‘Kosmos-3M | Zaliv 6’, on board a Kosmos-3M space rocket.

The launch took place on Oct. 12, 1970, 1:57 p.m. from 132/1 (132L).

For more information about the launch, click the button.

Launch to space Kosmos-3M | Zaliv 6
Kosmos-3M | Zaliv 6

Agency: N/A

Status: Launch Successful

Launch date: Oct. 12, 1970, 1:57 p.m. UTC

Rocket: Kosmos-3M

Launch pad: 132/1 (132L)

Location: Plesetsk Cosmodrome, Russian Federation

...

Latest news about this satellite

There are no fresh news available about this satellite. Check back as we update our databases every day.


Newsletter sign-up

Weekly statistics, charts and insights to help you stay on top of the space industry.